Tracking 28790 objects as of 18-Apr-2024
HD Live streaming from Space Station
objects crossing your sky now

SL-19 R/B

Track SL-19 R/B now!
10-day predictions


NORAD ID: 36039
Int'l Code: 2009-059D
Perigee: 507.7 km
Apogee: 693.3 km
Inclination: 98.4 °
Period: 96.5 minutes
Semi major axis: 6971 km
RCS: 5.376 m2 (large)
Launch date: November 2, 2009
Source: Commonwealth of Independent States (former USSR) (CIS)
Launch site: PLESETSK MISSILE AND SPACE COMPLEX (PKMTR)

Note: This is a ROCKET BODY
Your satellite tracking list
Your tracking list is empty




NASA's NSSDC Master Catalog

Two Line Element Set (TLE):
1 36039U 09059D   24109.47836115  .00003441  00000-0  29638-3 0  9998
2 36039  98.4404 311.8570 0133138  69.4811 292.0635 14.91457507784734
Source of the keplerian elements: AFSPC